Terug naar catalogus

BREEZE-M DEB

LostHEO
NORAD 38637·DEBRIS·🇷🇺 Russia

Gelanceerd Mar 14, 2008 vanaf Baikonur Cosmodrome

Loading…

Volgende Passages (komende 24 uur)

TLE

VerouderdSource: Space-Track

Epoch: Oct 2, 2016, 20:43 UTC

1 38637U 08011CL  16276.86353254 -.00000006 +00000-0 +11785-2 0  9996
2 38637 048.9743 164.2496 6394995 221.7358 066.0179 03.06794811061419

Volg BREEZE-M DEB in realtime met AllMySat

Download on the App Store